Time,TemperatureF,DewpointF,PressureIn,WindDirection,WindDirectionDegrees,WindSpeedMPH,WindSpeedGustMPH,Humidity,HourlyPrecipIn,Conditions,Clouds,dailyrainin,SoftwareType,DateUTC
2013-07-11 00:08:00,69.4,69.0,29.93,South,174,0.0,1.0,98,0.00,,,0.00,weatherlink.com 1.10,2013-07-11 04:08:00,
2013-07-11 00:23:00,69.4,69.0,29.93,South,174,0.0,1.0,98,0.00,,,0.00,weatherlink.com 1.10,2013-07-11 04:23:00,
2013-07-11 00:38:00,69.2,69.0,29.92,South,174,0.0,2.0,98,0.00,,,0.00,weatherlink.com 1.10,2013-07-11 04:38:00,
2013-07-11 00:53:00,69.0,69.0,29.91,South,174,0.0,0.0,98,0.00,,,0.00,weatherlink.com 1.10,2013-07-11 04:53:00,
2013-07-11 01:09:00,68.9,68.0,29.92,NE,42,3.0,3.0,98,0.00,,,0.00,weatherlink.com 1.10,2013-07-11 05:09:00,
2013-07-11 01:24:00,69.0,69.0,29.91,NE,42,1.0,3.0,98,0.00,,,0.00,weatherlink.com 1.10,2013-07-11 05:24:00,
2013-07-11 01:39:00,69.1,69.0,29.92,NE,43,0.0,3.0,98,0.00,,,0.00,weatherlink.com 1.10,2013-07-11 05:39:00,
2013-07-11 01:54:00,69.1,69.0,29.92,NE,44,0.0,1.0,98,0.00,,,0.00,weatherlink.com 1.10,2013-07-11 05:54:00,
2013-07-11 02:09:00,69.0,69.0,29.91,NE,43,0.0,0.0,98,0.00,,,0.00,weatherlink.com 1.10,2013-07-11 06:09:00,
2013-07-11 02:24:00,68.7,68.0,29.91,NE,43,1.0,2.0,98,0.00,,,0.00,weatherlink.com 1.10,2013-07-11 06:24:00,
2013-07-11 02:39:00,68.7,68.0,29.91,NE,43,0.0,0.0,98,0.00,,,0.00,weatherlink.com 1.10,2013-07-11 06:39:00,
2013-07-11 02:54:00,68.6,68.0,29.91,NE,44,1.0,1.0,98,0.00,,,0.00,weatherlink.com 1.10,2013-07-11 06:54:00,
2013-07-11 03:09:00,68.4,68.0,29.91,NE,44,0.0,1.0,98,0.00,,,0.00,weatherlink.com 1.10,2013-07-11 07:09:00,
2013-07-11 03:24:00,68.3,68.0,29.91,NE,44,0.0,2.0,98,0.00,,,0.00,weatherlink.com 1.10,2013-07-11 07:24:00,
2013-07-11 03:39:00,68.5,68.0,29.91,NE,43,0.0,1.0,99,0.00,,,0.00,weatherlink.com 1.10,2013-07-11 07:39:00,
2013-07-11 03:54:00,68.6,68.0,29.91,NE,44,0.0,2.0,99,0.00,,,0.00,weatherlink.com 1.10,2013-07-11 07:54:00,
2013-07-11 04:09:00,68.4,68.0,29.90,NE,44,1.0,1.0,99,0.00,,,0.00,weatherlink.com 1.10,2013-07-11 08:09:00,
2013-07-11 04:24:00,68.4,68.0,29.90,NE,43,0.0,0.0,99,0.00,,,0.00,weatherlink.com 1.10,2013-07-11 08:24:00,
2013-07-11 04:39:00,68.4,68.0,29.90,NE,43,0.0,1.0,99,0.00,,,0.00,weatherlink.com 1.10,2013-07-11 08:39:00,
2013-07-11 04:54:00,68.3,68.0,29.89,NE,43,0.0,1.0,99,0.00,,,0.00,weatherlink.com 1.10,2013-07-11 08:54:00,
2013-07-11 05:09:00,68.4,68.0,29.89,NE,43,0.0,1.0,99,0.00,,,0.00,weatherlink.com 1.10,2013-07-11 09:09:00,
2013-07-11 05:24:00,68.4,68.0,29.90,NE,43,0.0,1.0,99,0.00,,,0.00,weatherlink.com 1.10,2013-07-11 09:24:00,
2013-07-11 05:39:00,68.5,68.0,29.90,NE,43,0.0,0.0,99,0.00,,,0.00,weatherlink.com 1.10,2013-07-11 09:39:00,
2013-07-11 05:54:00,68.6,68.0,29.90,ENE,62,1.0,2.0,99,0.00,,,0.00,weatherlink.com 1.10,2013-07-11 09:54:00,
2013-07-11 06:09:00,68.6,68.0,29.90,ENE,62,0.0,2.0,99,0.00,,,0.00,weatherlink.com 1.10,2013-07-11 10:09:00,
2013-07-11 06:24:00,68.7,68.0,29.92,ENE,61,0.0,3.0,99,0.00,,,0.00,weatherlink.com 1.10,2013-07-11 10:24:00,
2013-07-11 06:39:00,68.8,69.0,29.92,ENE,61,0.0,1.0,99,0.00,,,0.00,weatherlink.com 1.10,2013-07-11 10:39:00,
2013-07-11 06:54:00,68.8,69.0,29.93,ENE,61,1.0,2.0,99,0.00,,,0.00,weatherlink.com 1.10,2013-07-11 10:54:00,
2013-07-11 07:09:00,69.0,69.0,29.93,ENE,61,0.0,1.0,99,0.00,,,0.00,weatherlink.com 1.10,2013-07-11 11:09:00,
2013-07-11 07:24:00,69.1,69.0,29.93,ENE,61,0.0,2.0,99,0.00,,,0.00,weatherlink.com 1.10,2013-07-11 11:24:00,
2013-07-11 07:39:00,69.4,69.0,29.93,ENE,61,0.0,2.0,99,0.00,,,0.00,weatherlink.com 1.10,2013-07-11 11:39:00,
2013-07-11 07:54:00,69.6,69.0,29.92,ENE,61,0.0,2.0,99,0.00,,,0.00,weatherlink.com 1.10,2013-07-11 11:54:00,
2013-07-11 08:09:00,69.8,70.0,29.93,ENE,61,0.0,2.0,99,0.00,,,0.00,weatherlink.com 1.10,2013-07-11 12:09:00,
2013-07-11 08:24:00,70.1,70.0,29.93,ENE,61,0.0,1.0,99,0.00,,,0.00,weatherlink.com 1.10,2013-07-11 12:24:00,
2013-07-11 08:39:00,70.1,70.0,29.93,ENE,61,0.0,2.0,99,0.00,,,0.00,weatherlink.com 1.10,2013-07-11 12:39:00,
2013-07-11 08:54:00,70.4,70.0,29.93,ENE,61,0.0,1.0,99,0.00,,,0.00,weatherlink.com 1.10,2013-07-11 12:54:00,
2013-07-11 09:10:00,70.5,70.0,29.93,ENE,61,0.0,3.0,98,0.00,,,0.00,weatherlink.com 1.10,2013-07-11 13:10:00,
2013-07-11 09:24:00,70.7,70.0,29.94,SE,133,0.0,3.0,98,0.00,,,0.00,weatherlink.com 1.10,2013-07-11 13:24:00,
2013-07-11 09:40:00,70.8,70.0,29.94,SE,133,0.0,3.0,98,0.00,,,0.00,weatherlink.com 1.10,2013-07-11 13:40:00,
2013-07-11 09:55:00,71.1,70.0,29.93,SE,133,0.0,1.0,97,0.00,,,0.00,weatherlink.com 1.10,2013-07-11 13:55:00,
2013-07-11 10:10:00,71.5,70.0,29.93,SE,133,0.0,2.0,96,0.00,,,0.00,weatherlink.com 1.10,2013-07-11 14:10:00,
2013-07-11 10:25:00,72.0,71.0,29.93,SE,133,0.0,1.0,95,0.00,,,0.00,weatherlink.com 1.10,2013-07-11 14:25:00,
2013-07-11 10:40:00,72.1,71.0,29.93,SW,220,0.0,2.0,95,0.00,,,0.00,weatherlink.com 1.10,2013-07-11 14:40:00,
2013-07-11 10:55:00,72.4,71.0,29.93,SW,222,0.0,2.0,96,0.00,,,0.00,weatherlink.com 1.10,2013-07-11 14:55:00,
2013-07-11 11:25:00,72.9,71.0,29.93,SW,222,0.0,2.0,93,0.00,,,0.00,weatherlink.com 1.10,2013-07-11 15:25:00,
2013-07-11 11:40:00,73.0,71.0,29.93,West,260,0.0,3.0,94,0.00,,,0.00,weatherlink.com 1.10,2013-07-11 15:40:00,
2013-07-11 11:55:00,73.3,71.0,29.93,WNW,294,0.0,3.0,93,0.00,,,0.00,weatherlink.com 1.10,2013-07-11 15:55:00,
2013-07-11 12:40:00,74.4,72.0,29.93,WSW,237,0.0,2.0,91,0.00,,,0.00,weatherlink.com 1.10,2013-07-11 16:40:00,
2013-07-11 12:55:00,75.3,73.0,29.92,WNW,301,0.0,3.0,91,0.00,,,0.00,weatherlink.com 1.10,2013-07-11 16:55:00,
2013-07-11 13:10:00,76.1,73.0,29.92,WNW,301,1.0,3.0,89,0.00,,,0.00,weatherlink.com 1.10,2013-07-11 17:10:00,
2013-07-11 13:25:00,76.6,73.0,29.91,NW,307,4.0,6.0,88,0.00,,,0.00,weatherlink.com 1.10,2013-07-11 17:25:00,
2013-07-11 13:40:00,77.9,72.0,29.91,NNE,21,0.0,4.0,83,0.00,,,0.00,weatherlink.com 1.10,2013-07-11 17:40:00,
2013-07-11 13:55:00,78.7,73.0,29.90,SSE,157,1.0,3.0,83,0.00,,,0.00,weatherlink.com 1.10,2013-07-11 17:55:00,
2013-07-11 14:10:00,80.1,73.0,29.90,South,170,0.0,3.0,80,0.00,,,0.00,weatherlink.com 1.10,2013-07-11 18:10:00,
2013-07-11 14:25:00,79.3,74.0,29.89,South,179,2.0,4.0,83,0.00,,,0.00,weatherlink.com 1.10,2013-07-11 18:25:00,
2013-07-11 14:40:00,79.2,74.0,29.89,SSW,197,3.0,5.0,83,0.00,,,0.00,weatherlink.com 1.10,2013-07-11 18:40:00,
2013-07-11 14:55:00,79.2,74.0,29.88,South,186,2.0,4.0,83,0.00,,,0.00,weatherlink.com 1.10,2013-07-11 18:55:00,
2013-07-11 15:10:00,79.1,74.0,29.88,West,275,2.0,2.0,84,0.00,,,0.00,weatherlink.com 1.10,2013-07-11 19:10:00,
2013-07-11 15:25:00,79.0,74.0,29.88,SSW,195,1.0,4.0,84,0.00,,,0.00,weatherlink.com 1.10,2013-07-11 19:25:00,
2013-07-11 15:40:00,79.6,73.0,29.88,South,169,0.0,5.0,81,0.00,,,0.00,weatherlink.com 1.10,2013-07-11 19:40:00,
2013-07-11 16:11:00,79.2,74.0,29.86,SSE,147,1.0,3.0,83,0.00,,,0.00,weatherlink.com 1.10,2013-07-11 20:11:00,
2013-07-11 16:26:00,79.6,74.0,29.86,SSW,210,2.0,4.0,82,0.00,,,0.00,weatherlink.com 1.10,2013-07-11 20:26:00,
2013-07-11 16:41:00,79.4,74.0,29.86,SW,220,2.0,3.0,84,0.00,,,0.00,weatherlink.com 1.10,2013-07-11 20:41:00,
2013-07-11 16:56:00,79.3,74.0,29.84,SSW,193,2.0,3.0,84,0.00,,,0.00,weatherlink.com 1.10,2013-07-11 20:56:00,
2013-07-11 17:11:00,79.6,74.0,29.84,West,267,3.0,4.0,84,0.00,,,0.00,weatherlink.com 1.10,2013-07-11 21:11:00,
2013-07-11 17:26:00,80.0,75.0,29.84,WSW,238,2.0,4.0,84,0.00,,,0.00,weatherlink.com 1.10,2013-07-11 21:26:00,
2013-07-11 17:41:00,79.8,74.0,29.84,South,184,0.0,3.0,83,0.00,,,0.00,weatherlink.com 1.10,2013-07-11 21:41:00,
2013-07-11 17:56:00,80.6,75.0,29.84,SE,129,0.0,3.0,82,0.00,,,0.00,weatherlink.com 1.10,2013-07-11 21:56:00,
2013-07-11 18:11:00,80.5,75.0,29.84,SE,129,0.0,1.0,82,0.00,,,0.00,weatherlink.com 1.10,2013-07-11 22:11:00,
2013-07-11 18:26:00,80.0,74.0,29.84,SE,133,2.0,3.0,83,0.00,,,0.00,weatherlink.com 1.10,2013-07-11 22:26:00,
2013-07-11 18:41:00,80.0,74.0,29.84,SE,133,1.0,3.0,83,0.00,,,0.00,weatherlink.com 1.10,2013-07-11 22:41:00,
2013-07-11 18:56:00,79.4,75.0,29.84,South,187,2.0,3.0,85,0.00,,,0.00,weatherlink.com 1.10,2013-07-11 22:56:00,
2013-07-11 19:27:00,78.8,75.0,29.84,SSE,159,1.0,2.0,87,0.00,,,0.00,weatherlink.com 1.10,2013-07-11 23:27:00,
2013-07-11 19:42:00,78.1,74.0,29.84,SSE,159,0.0,3.0,88,0.00,,,0.00,weatherlink.com 1.10,2013-07-11 23:42:00,
2013-07-11 19:57:00,78.2,74.0,29.85,SSE,159,0.0,1.0,88,0.00,,,0.00,weatherlink.com 1.10,2013-07-11 23:57:00,
2013-07-11 20:12:00,78.0,74.0,29.84,SSE,161,1.0,4.0,88,0.00,,,0.00,weatherlink.com 1.10,2013-07-12 00:12:00,
2013-07-11 20:27:00,77.7,74.0,29.84,SSE,152,0.0,2.0,89,0.00,,,0.00,weatherlink.com 1.10,2013-07-12 00:27:00,
2013-07-11 20:42:00,77.1,74.0,29.85,SSE,152,0.0,2.0,90,0.00,,,0.00,weatherlink.com 1.10,2013-07-12 00:42:00,
2013-07-11 21:12:00,76.4,74.0,29.85,SSE,152,0.0,1.0,93,0.00,,,0.00,weatherlink.com 1.10,2013-07-12 01:12:00,
2013-07-11 21:27:00,75.9,74.0,29.85,SSE,152,0.0,2.0,93,0.00,,,0.00,weatherlink.com 1.10,2013-07-12 01:27:00,
2013-07-11 21:57:00,75.1,73.0,29.85,SSE,152,0.0,0.0,94,0.00,,,0.00,weatherlink.com 1.10,2013-07-12 01:57:00,
2013-07-11 22:27:00,74.3,73.0,29.86,SSE,152,2.0,3.0,96,0.00,,,0.00,weatherlink.com 1.10,2013-07-12 02:27:00,
2013-07-11 22:43:00,74.5,74.0,29.87,SE,132,2.0,3.0,97,0.00,,,0.00,weatherlink.com 1.10,2013-07-12 02:43:00,
2013-07-11 22:58:00,74.5,74.0,29.88,SE,132,0.0,3.0,97,0.00,,,0.00,weatherlink.com 1.10,2013-07-12 02:58:00,
2013-07-11 23:13:00,74.5,74.0,29.88,SE,132,1.0,2.0,97,0.00,,,0.00,weatherlink.com 1.10,2013-07-12 03:13:00,
2013-07-11 23:43:00,74.4,74.0,29.86,SE,136,0.0,3.0,97,0.00,,,0.00,weatherlink.com 1.10,2013-07-12 03:43:00,